weather.gov     
National Weather Service

Regional Weather Roundup
NWS Homepage
This page is being discontinued on March 12, 2014.
The same data is available at this site. Please update your bookmarks.
Thank you, and we apologize for the inconvenience.
Please send an email to SR-SRH.Webmaster@noaa.gov with any concerns.


Current Version
Previous Version:    01  02  03  04  05  06  07  08  09  10  11  12  13  14  15  16  17  18  19  20  21  22  23  24  25  26  27  28  29  30  
   31  32  33  34  35  36  37  38  39  40  41  42  43  44  45  46  47  48  49  50  51  52  53  54  55  56  57  58  59  60  
[Printable]
218
ASUS44 KFWD 311203
RWRTX
NORTH TEXAS HOURLY WEATHER ROUNDUP
NATIONAL WEATHER SERVICE FORT WORTH TX
700 AM CDT FRI OCT 31 2014

NOTE: "FAIR" INDICATES FEW OR NO CLOUDS BELOW 12,000 FEET WITH NO
SIGNIFICANT WEATHER AND/OR OBSTRUCTIONS TO VISIBILITY.

TXZ118-119-311300-
DALLAS/FORT WORTH METROPLEX

CITY           SKY/WX    TMP DP  RH WIND       PRES   REMARKS
DFW AIRPORT    CLEAR     54  41  61 N13       30.24R
6HR MIN TEMP:  54; 6HR MAX TEMP:  60;

DALLAS LOVE    CLEAR     54  42  64 N8        30.24R
6HR MIN TEMP:  53; 6HR MAX TEMP:  60;

FTW MEACHAM    CLEAR     56  39  53 N8        30.26R
6HR MIN TEMP:  56; 6HR MAX TEMP:  64;

DAL-EXECUTIVE  CLEAR     55  41  59 N8        30.24R
6HR MIN TEMP:  55; 6HR MAX TEMP:  63;

FTW-ALLIANCE   CLEAR     52  39  61 N9        30.26R
6HR MIN TEMP:  52; 6HR MAX TEMP:  58;

FTW-NAS-JRB    CLEAR     60  46  59 N13       30.31R
6HR MIN TEMP:  59; 6HR MAX TEMP:  64;

ARLINGTON      CLEAR     58  39  49 N12       30.24R
6HR MIN TEMP:  58; 6HR MAX TEMP:  63;

GRAND PRAIRIE  CLEAR     57  43  58 MISG      30.25R
ADDISON        CLEAR     54  39  58 N9        30.25R
MESQUITE       CLEAR     55  43  62 N10       30.23R
LANCASTER      CLEAR     56  38  51 N10       30.24R
6HR MIN TEMP:  55; 6HR MAX TEMP:  63;

$$

TXZ091>094-102>105-117-120-121-131>134-311300-
NORTH CENTRAL TEXAS

CITY           SKY/WX    TMP DP  RH WIND       PRES   REMARKS
SHRMAN/DENISON CLEAR     53  44  72 N10       30.27R
6HR MIN TEMP:  49; 6HR MAX TEMP:  53;

GAINESVILLE    CLEAR     50  40  66 N13       30.29R
6HR MIN TEMP:  48; 6HR MAX TEMP:  55;

BOWIE          CLEAR     49  39  67 N12G17    30.30R
6HR MIN TEMP:  49; 6HR MAX TEMP:  55;

BRIDGEPORT     CLEAR     53  41  64 N3        30.31R
6HR MIN TEMP:  52; 6HR MAX TEMP:  58;

DECATUR        CLEAR     51  37  60 N8        30.27S
6HR MIN TEMP:  51; 6HR MAX TEMP:  60;

DENTON         CLEAR     50  39  66 N7        30.27R
6HR MIN TEMP:  50; 6HR MAX TEMP:  56;

MCKINNEY       CLEAR     51  41  68 NW7       30.25R
6HR MIN TEMP:  51; 6HR MAX TEMP:  57;

GREENVILLE     CLEAR     50  41  71 N6        30.23R
ROCKWALL       CLEAR     55  42  61 N9        30.22R
6HR MIN TEMP:  55; 6HR MAX TEMP:  60;

TERRELL        CLEAR     57  41  55 N10       30.23R
6HR MIN TEMP:  57; 6HR MAX TEMP:  65;

WAXAHACHIE     FAIR      55  43  63 N10       30.25R
6HR MIN TEMP:  55; 6HR MAX TEMP:  61;

CLEBURNE       CLEAR     52  45  76 N8        30.26R
GRANBURY       CLEAR     51  45  79 NW7       30.28R
6HR MIN TEMP:  51; 6HR MAX TEMP:  62;

$$

TXZ083>090-098>101-113>116-127>130-139>142-154-155-311300-
WESTERN NORTH TEXAS

CITY           SKY/WX    TMP DP  RH WIND       PRES   REMARKS
WICHITA FALLS  CLEAR     50  37  61 N12       30.32R
6HR MIN TEMP:  47; 6HR MAX TEMP:  55;

WF-KICKAPOO    CLEAR     52  36  55 N13G18    30.33R
6HR MIN TEMP:  51; 6HR MAX TEMP:  59;

VERNON         CLEAR     50  34  53 N7        30.36R
ABILENE        CLEAR     49  38  65 N6        30.33R
6HR MIN TEMP:  49; 6HR MAX TEMP:  65;

ABILENE-DYESS  CLEAR     48  37  64 N6        30.32R
6HR MIN TEMP:  47; 6HR MAX TEMP:  61;

BRECKENRIDGE   CLEAR     52  37  56 N5        30.31R
6HR MIN TEMP:  51; 6HR MAX TEMP:  63;

MINERAL WELLS  CLEAR     50  40  68 N8        30.27R
6HR MIN TEMP:  49; 6HR MAX TEMP:  58;

STEPHENVILLE   CLEAR     55  40  58 N8        30.30R
6HR MIN TEMP:  55; 6HR MAX TEMP:  62;

COMANCHE       CLEAR     53  44  72 N8        30.28R
6HR MIN TEMP:  52; 6HR MAX TEMP:  63;

COLEMAN        CLEAR     54  41  61 N10       30.30R
6HR MIN TEMP:  54; 6HR MAX TEMP:  66;

BRADY          CLEAR     54  48  82 N7        30.28R
$$

TXZ143>147-156>162-174-175-311300-
CENTRAL TEXAS

CITY           SKY/WX    TMP DP  RH WIND       PRES   REMARKS
WACO           CLEAR     56  45  66 NW12      30.22R
6HR MIN TEMP:  56; 6HR MAX TEMP:  63;

WACO-TSTC      CLEAR     55  46  71 N10         N/A
WACO-MCGREGOR  CLEAR     55  43  62 NW9       30.24R
6HR MIN TEMP:  55; 6HR MAX TEMP:  64;

HILLSBORO      CLEAR     53  41  65 N10       30.23R
6HR MIN TEMP:  53; 6HR MAX TEMP:  61;

CORSICANA      CLEAR     57  43  59 N12       30.22R
6HR MIN TEMP:  57; 6HR MAX TEMP:  63;

MEXIA          CLEAR     56  45  67 N9        30.19R
6HR MIN TEMP:  56; 6HR MAX TEMP:  62;

HEARNE         CLEAR     53  52  95 CALM      30.20R
6HR MIN TEMP:  53; 6HR MAX TEMP:  62;

CAMERON        CLEAR     56  52  87 NW7       30.20R
6HR MIN TEMP:  56; 6HR MAX TEMP:  65;

TEMPLE         CLEAR     54  45  71 N8        30.22R
6HR MIN TEMP:  54; 6HR MAX TEMP:  64;

KILLEEN        CLEAR     54  50  87 N10       30.24R
6HR MIN TEMP:  54; 6HR MAX TEMP:  66; 6HR PCP: TRACE;

KILLEEN-SKYLRK CLEAR     57  45  62 NW5       30.21R
6HR MIN TEMP:  57; 6HR MAX TEMP:  66;

GATESVILLE     CLEAR     54  46  76 CALM      30.27R
HAMILTON       CLEAR     53  44  70 N9        30.27R
6HR MIN TEMP:  52; 6HR MAX TEMP:  62;

LAMPASAS       CLEAR     55  52  88 N7        30.24R
6HR MIN TEMP:  55; 6HR MAX TEMP:  64; 6HR PCP:  0.03;

$$

TXZ095>097-106>112-122>126-135>138-148>153-164>167-311300-
EAST TEXAS

CITY           SKY/WX    TMP DP  RH WIND       PRES   REMARKS
PARIS          CLEAR     50  37  62 N10       30.22R
6HR MIN TEMP:  48; 6HR MAX TEMP:  57;

SULPHUR SPRNGS CLEAR     55  45  69 NW10      30.23R
6HR MIN TEMP:  55; 6HR MAX TEMP:  61;

MOUNT PLEASANT CLEAR     51  43  73 NW9       30.19R
6HR MIN TEMP:  51; 6HR MAX TEMP:  58;

MINEOLA        CLEAR     54  45  71 NW6       30.20R
TYLER          CLEAR     54  44  69 N7        30.18R
6HR MIN TEMP:  52; 6HR MAX TEMP:  59;

LONGVIEW       CLEAR     50  45  83 NW7       30.15R
6HR MIN TEMP:  48; 6HR MAX TEMP:  55;

MARSHALL       CLEAR     56  48  75 N7        30.16R
6HR MIN TEMP:  51; 6HR MAX TEMP:  60;

ATHENS         CLEAR     54  43  66 N8        30.18R
PALESTINE      CLEAR     53  48  83 NW6       30.19R
JACKSONVILLE   CLEAR     57  45  63 NW3       30.18R
HENDERSON      CLEAR     56  44  64 N6        30.17R
6HR MIN TEMP:  47; 6HR MAX TEMP:  59;

NACOGDOCHES    CLEAR     52  46  82 N7        30.15R
6HR MIN TEMP:  48; 6HR MAX TEMP:  52;

LUFKIN         CLEAR     54  48  80 NW6       30.13R
6HR MIN TEMP:  53; 6HR MAX TEMP:  58;

$$

SUPPLEMENTAL OBSERVATIONS (CENTRAL)

CITY           SKY/WX    TMP DP  RH WIND       PRES   REMARKS
$$

SUPPLEMENTAL OBSERVATIONS (WEST)

CITY           SKY/WX    TMP DP  RH WIND       PRES   REMARKS
$$

SUPPLEMENTAL OBSERVATIONS (EAST)

CITY           SKY/WX    TMP DP  RH WIND       PRES   REMARKS
$$

SUPPLEMENTAL OBSERVATIONS ARE A COLLECTION OF AUTOMATED INSTRUMENTS
THAT ARE MAINTAINED BY A VARIETY OF FEDERAL AND STATE AGENCIES.
CERTAIN ELEMENTS...SUCH AS HUMIDITY VALUES AND SUSTAINED WIND
SPEEDS...MAY BE APPROXIMATED.





U.S. Dept. of Commerce
NOAA National Weather Service
1325 East West Highway
Silver Spring, MD 20910
E-mail: w-nws.webmaster@noaa.gov
Page last modified: May 16, 2007
NATIONAL WEATHER SERVICE: for Safety, for Work, for Fun - FOR LIFE